Location: Atlanta
(33.7490°N, 84.3880°W)
Time: 15:29:44
(UTC-04:00)

Daily predictions for brighter satellites

Satellite Brightness Start Highest point End
(mag) Time Altitude Azimuth Time Altitude Azimuth Time Altitude Azimuth
Cosmos 2084 4.5 21:00:58 10° S 21:04:35 25° ESE 21:08:03 10° ENE
HJ-1C 4.2 21:05:07 10° S 21:08:27 55° W 21:11:50 10° NNW
Cosmos 2278 4.2 21:02:58 10° NNW 21:08:35 65° WSW 21:14:11 10° S
Cosmos 1536 3.4 21:09:41 10° NNW 21:13:42 61° W 21:17:43 10° S
Cosmos 1459 Rocket 4.5 21:09:21 10° SSW 21:15:20 65° W 21:21:22 10° N
Cosmos 2151 Rocket 3.7 21:13:31 10° N 21:17:59 83° W 21:22:23 10° S
Cosmos 2208 Rocket 4.1 21:13:10 10° S 21:18:11 51° ESE 21:23:11 10° NNE
Atlas Centaur 2 1.4 21:15:25 10° W 21:19:22 50° S 21:22:38 11° ESE
Cosmos 1300 Rocket 3.5 21:15:23 10° N 21:19:44 69° E 21:24:01 10° SSE
Cosmos 304 Rocket 3.7 21:15:24 10° S 21:20:11 74° ESE 21:25:00 10° NNE
CENTAUR R/B 3.3 21:16:55 10° SSE 21:21:23 24° ESE 21:26:15 10° ENE
Cosmos 2360 4.3 21:16:11 10° NNW 21:21:52 64° ENE 21:27:30 10° SSE
YAOGAN 6 2.6 21:19:05 10° SSE 21:22:47 81° ENE 21:26:29 10° N
Cosmos 1777 Rocket 4.5 21:19:02 10° NNW 21:24:10 63° WSW 21:29:17 10° S
Envisat 3.7 21:20:11 10° S 21:25:09 57° W 21:30:10 10° NNW
SJ-6B 3.6 21:22:14 10° S 21:25:51 48° W 21:29:28 10° NNW
COSMOS 2487 3.7 21:23:11 10° SW 21:26:32 45° WNW 21:29:55 10° N
Cosmos 1975 3.9 21:23:26 10° NNE 21:26:55 27° E 21:29:38 14° SE
ISS -1.0 21:25:14 10° W 21:27:53 22° NW 21:30:31 10° NNE
ATLAS CENTAUR R/B 1.7 21:26:08 10° NNW 21:30:46 81° ENE 21:35:09 12° SSE
Timation 2 Rocket 3.9 21:25:10 10° S 21:30:58 58° ESE 21:36:51 10° NNE
Abrixas rocket 3.6 21:29:04 10° WSW 21:32:08 41° NW 21:35:12 10° NE
ATLAS 3B R/B 3.6 21:26:49 10° SW 21:33:55 57° WNW 21:40:47 10° NNE
Cosmos 1697 Rocket 3.4 21:28:59 10° NNW 21:34:28 53° WSW 21:39:55 10° S
Cosmos 1242 Rocket 4.1 21:33:16 10° NNE 21:36:03 21° ENE 21:37:29 17° ESE
Cosmos 1500 3.5 21:34:38 10° NNW 21:38:28 67° W 21:42:18 10° S
BREEZE-M DEB (TANK) 3.7 21:38:25 10° NNW 21:40:30 27° NE 21:42:59 14° E
SL-24 R/B 4.4 21:36:36 10° S 21:41:26 86° E 21:46:36 10° N
Thor Agena Rocket 4.3 21:39:10 10° N 21:44:18 56° WNW 21:49:22 10° SSW
Cosmos 2360 Rocket 4.2 21:42:15 10° NNE 21:44:28 12° NE 21:46:40 10° ENE
Tiangong 2 3.2 21:42:03 10° W 21:44:48 27° NNW 21:47:34 10° NE
USA 186 3.2 21:44:23 10° SSW 21:47:17 36° W 21:50:22 10° NNW
Cosmos 1980 Rocket 2.3 21:42:07 10° NNW 21:47:46 76° WSW 21:53:06 12° SSE
Resurs 1-3 3.8 21:45:44 10° S 21:50:06 72° W 21:54:29 10° NNW
deb Kosmos-1763 3.9 21:47:27 10° SSW 21:51:08 81° ESE 21:54:51 10° NNE
ERS-2 2.7 21:49:08 10° S 21:52:44 55° WSW 21:56:22 10° NNW
Cosmos 1666 3.0 21:49:29 10° N 21:53:14 48° E 21:55:11 25° SE
Okean 1 4.2 21:54:02 10° SSW 21:57:58 51° W 22:01:56 10° N
BREEZE-M DEB (TANK) 1.3 21:57:58 10° NW 22:00:28 52° NE 22:00:45 46° ENE
Tsikada Rocket 4.1 21:55:50 10° N 22:02:16 81° W 22:08:40 10° S
Cosmos 1743 2.7 21:59:14 10° N 22:03:00 60° E 22:04:38 31° SSE
Spot 2 Rocket 3.5 21:59:35 14° S 22:03:56 79° WSW 22:08:59 10° NNW
Cosmos 1939 Rocket 4.5 22:01:01 10° SSW 22:04:43 33° W 22:08:28 10° NNW
Cosmos 2346 Rocket 4.4 22:00:24 10° N 22:06:39 88° E 22:11:53 15° S
Iridium 2 3.7 22:05:38 30° SSE 22:07:18 58° E 22:11:04 10° NNE
MetOp-A 4.5 22:05:37 26° SE 22:08:23 48° ENE 22:13:30 10° N
Cosmos 468 Rocket 4.5 22:03:34 10° SSW 22:08:47 64° WNW 22:14:00 10° N
Cosmos 1455 Rocket 4.1 22:05:38 10° NNE 22:09:24 28° ENE 22:10:07 26° E
Cosmos 540 Rocket 4.3 22:11:03 28° ESE 22:11:43 29° E 22:16:07 10° NE
Cosmos 1937 Rocket 3.9 22:09:03 10° N 22:14:00 46° ENE 22:15:56 32° ESE
Meteor 2-4 Rocket 3.7 22:10:23 20° SSE 22:14:00 59° E 22:19:25 10° NNE
Cosmos 1833 4.4 22:10:33 16° S 22:14:53 48° ESE 22:20:20 10° NNE
Cosmos 1975 Rocket 3.2 22:11:23 11° SSW 22:15:33 74° W 22:19:51 10° N
Cosmos 1763 Rocket 3.5 22:11:17 10° SSW 22:16:36 89° W 22:21:55 10° NNE
GPS 2-04 Rocket1 3.4 22:15:28 10° W 22:19:27 41° SSW 22:20:22 36° S
Okean 1 Rocket 4.3 22:16:36 10° NNW 22:20:38 39° W 22:24:22 12° SSW
Cosmos 841 Rocket 3.4 22:16:57 15° S 22:21:16 68° ESE 22:26:30 10° NNE
USA 32 4.3 22:16:47 10° N 22:21:51 48° E 22:23:29 36° SE
Delta 7925 Rocket 3.9 22:18:01 10° WSW 22:22:10 33° S 22:22:35 32° S
Meteor 2-20 4.5 22:19:20 10° N 22:25:26 62° E 22:28:13 33° SSE
SL-08 RB Rocket 3.8 22:27:06 43° SE 22:28:14 57° ENE 22:32:42 10° N
Helios 1A 4.1 22:32:26 28° ENE 22:32:26 28° ENE 22:35:59 10° NNE
Cosmos 1340 Rocket 2.7 22:31:55 56° SSE 22:32:41 75° E 22:36:45 10° NNE
Cosmos 1515 4.2 22:33:12 42° ENE 22:33:12 42° ENE 22:36:24 10° NNE
ARGOS 3.1 22:34:10 35° SSE 22:36:33 88° WSW 22:41:59 10° NNW
Cosmos 1544 Rocket 3.6 22:32:17 10° N 22:36:41 60° E 22:37:13 55° ESE
Cosmos 858 Rocket 4.4 22:31:32 10° NNW 22:36:46 89° WSW 22:38:33 43° SSE
Cosmos 2322 Rocket 2.1 22:33:03 10° NNW 22:38:42 87° ENE 22:40:37 43° SSE
Resurs 01 Rocket 3.9 22:36:23 10° SW 22:39:35 20° W 22:42:47 10° NW
SPOT 5 3.5 22:40:13 33° ENE 22:40:17 33° ENE 22:44:19 10° N
Cosmos 1072 Rocket 4.4 22:38:09 25° S 22:42:07 86° E 22:48:26 10° N
SL-16 R/B 2.2 22:41:44 10° NNW 22:47:24 74° WSW 22:49:18 43° S
SPOT 1/Viking Rocket 4.0 22:47:58 42° E 22:48:33 44° ENE 22:53:26 10° N
ERS-1 Rocket 2.9 22:47:49 56° SE 22:48:51 77° ENE 22:53:53 10° N
Cosmos 1536 Rocket 3.4 22:48:40 71° ESE 22:48:52 73° E 22:53:18 10° N
Terra 3.3 22:50:46 22° ENE 22:50:46 22° ENE 22:54:12 10° NNE
SJ 16-02 2.8 22:46:52 10° N 22:50:11 26° ENE 22:50:11 26° ENE
Cosmos 1356 3.9 22:52:00 58° NNW 22:52:00 58° NNW 22:54:55 10° N
H-2A R/B 1.9 22:50:58 50° S 22:52:15 77° W 22:57:15 10° NNW
Cosmos 1898 Rocket 4.4 22:51:29 10° NNW 22:56:31 44° WSW 22:58:31 31° SSW
Nadezhda 4 Rocket 4.4 22:52:52 10° N 22:58:53 45° E 22:59:41 43° E
Meteor 1-15 Rocket 4.3 22:55:59 10° N 23:01:38 59° E 23:02:11 56° ESE
Atlas Centaur 2 3.5 23:04:31 10° WSW 23:05:16 14° WSW 23:05:16 14° WSW
DMSP B5D2-2 4.2 23:04:07 10° N 23:09:24 73° WNW 23:10:55 47° SW
Helios 1B rocket 3.1 23:05:35 10° NNE 23:08:40 49° NNE 23:08:40 49° NNE
Cosmos 1125 Rocket 4.3 23:05:01 10° N 23:09:40 36° ENE 23:09:40 36° ENE
CENTAUR R/B 3.4 23:05:53 10° SW 23:11:28 46° NW 23:17:51 10° NNE
Cosmos 836 Rocket 4.5 23:20:34 71° WSW 23:20:59 77° WNW 23:26:13 10° NNE
Tiangong 2 4.0 23:20:11 10° NW 23:22:08 16° N 23:22:08 16° N
Cosmos 2034 Rocket 4.2 23:22:29 42° SW 23:24:30 65° W 23:30:37 10° N
Cosmos 2360 Rocket 2.1 23:23:28 10° NNW 23:29:08 84° WSW 23:29:12 83° SW
Cosmos 2219 Rocket 3.5 23:29:02 10° N 23:33:35 28° ENE 23:33:35 28° ENE
CZ-2C R/B 3.6 23:29:34 10° NNE 23:33:28 37° ENE 23:33:28 37° ENE
Cosmos 1025 Rocket 4.1 23:38:39 44° NNW 23:38:39 44° NNW 23:41:45 10° N
Lacrosse 5 rocket 3.1 23:45:45 10° NNW 23:48:08 30° NNW 23:48:08 30° NNW
Cosmos 2333 Rocket 3.3 23:46:58 10° N 23:51:38 35° NE 23:51:38 35° NE
Cosmos 1634 Rocket 3.9 23:52:52 80° NE 23:52:52 80° NE 23:58:56 10° N
